User: anonymous   Login
Location: La Brionne
(46.1728°N, 1.7849°E)
Time: 00:26:20
(UTC+00:00)
Language:

BREEZE-M DEB (TANK) - Orbit

View from above orbital plane
View from above orbital plane
View from above satellite
View from above satellite

Ground track
Ground track

The orbit data is extracted from the following two-line orbital elements,

1 37187U 10053C   21268.13717254  .00003414  00000-0  71636-3 0  9992
2 37187  49.5360  91.7553 5194308 114.4230 307.3627  5.28606886209413
Epoch (UTC): 25 September 2021 03:17:31
Eccentricity: 0.5194308
inclination: 49.5360°
perigee height: 311 km
apogee height: 14772 km
right ascension of ascending node: 91.7553°
argument of perigee: 114.4230°
revolutions per day: 5.28606886
mean anomaly at epoch: 307.3627°
orbit number at epoch: 20941

The dashed part of the orbit path shows where the satellite is in the earth's shadow,  

DLR